sat.trackr.live / text

‹ back to catalog

STARLINK-4173

NORAD 53285 · 2022-086AV

PAYLOAD ACTIVE UNKNOWN

§ Identity

Operator
Country
US
Launch date
2022-07-24
Launch site
AFETR
Launch vehicle
Mass (kg)
RCS (m²)

Purposes: comms

External: N2YO · Heavens-Above · Gunter

§ Orbital elements

Epoch: 2026-05-24T15:16:23.638080Z

Period
95.44 min
Inclination
53.2135°
Eccentricity
0.0001355
Mean motion
15.08834170 rev/d
Perigee alt
538.8 km
Apogee alt
540.7 km
Semi-major
6,917.9 km
B*
-8.3037e-5
RAAN
203.1812°
Arg perigee
99.0396°
Mean anomaly
261.0750°
Rev number
21,265

§ Raw data

STARLINK-41731 53285U 22086AV  26144.63638470 -.00001609  00000+0 -83037-4 0  99972 53285  53.2135 203.1812 0001355  99.0396 261.0750 15.08834170212655

JSON: /api/v1/satellites/53285 · /tle

For live sub-satellite position, see the globe view (requires WebGL).

§ Visibility from observer

Set your observer location to see the next 7 days of passes ≥ 10°. The values pass through the URL so the page stays shareable.

No JS? Fill the form by hand. The geolocation button needs JavaScript.